Home > Weather > Seelze > Past weeks

Flag for Germany Past Weather in Seelze, Lower Saxony, Germany — Yesterday and Last 2 Weeks

Now
63 °F

Light rain. Fog.


Feels Like: 63 °F
Forecast: 60 / 75 °F
Wind: 5 mph from North

Location: Hannover

Current Time: Jun 1, 2016 at 9:41:27 AM

Latest Report: Jun 1, 2016 at 8:50 AM


Visibility: 2 mi

Pressure: 29.89 "Hg

Humidity: 100%

Dew Point: 63 °F

Location of SeelzeLocation

Past Weather in Seelze — Graph

°F

Seelze Temperature Yesterday

Maximum temperature yesterday: 77 °F (at 4:50 PM)
Minimum temperature yesterday: 57 °F (at 5:50 AM)
Average temperature yesterday: 66 °F

High & Low Weather Summary for the Past Weeks

 TemperatureHumidityPressure
High81 °F (May 22, 2:20 PM)100% (May 22, 11:50 PM)30.04 "Hg (May 22, 11:50 PM)
Low45 °F (May 18, 2:50 AM)42% (May 22, 12:50 PM)29.59 "Hg (May 30, 3:50 PM)
Average60 °F81%29.89 "Hg
* Reported May 17 8:20 AM — Jun 1 8:20 AM, Seelze, Weather by CustomWeather, © 2016

Note: Actual official high and low records may vary slightly from our data, if they occured in-between our weather recording intervals... More about our weather records

Advertising

Seelze Weather History for the Previous 24 Hours

Scroll right to see more
 ConditionsComfort  
Time TempWeatherWind HumidityBarometerVisibility
8:20 AM
Wed, Jun 1
63 °FLight rain. Fog.5 mph100%29.89 "Hg2 mi
7:50 AM63 °FFog.7 mph100%29.89 "Hg2 mi
7:20 AM63 °FFog.3 mph100%29.89 "Hg3 mi
6:50 AM61 °FFog.5 mph100%29.89 "Hg3 mi
6:20 AM61 °FFog.3 mph100%29.89 "Hg3 mi
5:50 AM61 °FFog.1 mph100%29.89 "Hg3 mi
5:20 AM61 °FFog.1 mph100%29.89 "Hg3 mi
4:50 AM59 °FFog.1 mph100%29.89 "Hg2 mi
4:20 AM59 °FCool.7 mph100%29.86 "Hg1 mi
3:50 AM57 °FCool.3 mph100%29.89 "Hg2 mi
3:20 AM59 °FFog.2 mph100%29.89 "Hg3 mi
2:50 AM59 °FFog.1 mph100%29.89 "Hg1 mi
2:20 AM59 °FCool.2 mph100%29.89 "Hg3 mi
1:50 AM59 °FFog.3 mph100%29.89 "Hg4 mi
1:20 AM59 °FPassing clouds.3 mph100%29.89 "HgN/A
12:50 AM61 °FClear.1 mph100%29.89 "Hg10 mi
12:20 AM61 °FClear.6 mph100%29.89 "Hg10 mi
11:50 PM
Tue, May 31
61 °FClear.6 mph100%29.89 "Hg10 mi
11:20 PM61 °FThunderstorms. Partly cloudy.7 mph100%29.89 "HgN/A
10:50 PM61 °FThunderstorms. Partly cloudy.3 mph100%29.89 "Hg3 mi
10:20 PM63 °FThundershowers. Broken clouds.7 mph100%29.89 "HgN/A
9:50 PM63 °FThunderstorms. Broken clouds.8 mph100%29.89 "HgN/A
9:20 PM63 °FStrong thunderstorms. Broken clouds.8 mph100%29.89 "Hg1 mi
8:50 PM64 °FThunderstorms. Broken clouds.10 mph100%29.89 "Hg2 mi
8:20 PM66 °FThunderstorms. Broken clouds.12 mph94%29.86 "HgN/A
7:50 PM64 °FThunderstorms. Scattered clouds.9 mph100%29.86 "Hg2 mi
7:20 PM72 °FThunderstorms. Scattered clouds.13 mph69%29.86 "HgN/A
6:50 PM77 °FScattered clouds.6 mph57%29.83 "HgN/A
6:20 PM77 °FPassing clouds.7 mph57%29.83 "HgN/A
5:50 PM77 °FPassing clouds.5 mph54%29.83 "HgN/A
5:20 PM77 °FPassing clouds.3 mph54%29.83 "HgN/A
4:50 PM77 °FScattered clouds.3 mph51%29.83 "HgN/A
4:20 PM75 °FScattered clouds.5 mph61%29.83 "HgN/A
3:50 PM75 °FScattered clouds.5 mph57%29.83 "HgN/A
3:20 PM75 °FScattered clouds.5 mph57%29.83 "HgN/A
2:50 PM75 °FScattered clouds.3 mph57%29.86 "HgN/A
2:20 PM73 °FScattered clouds.6 mph57%29.86 "HgN/A
1:50 PM73 °FScattered clouds.5 mph61%29.86 "HgN/A
1:20 PM72 °FScattered clouds.5 mph61%29.86 "HgN/A
12:50 PM73 °FPartly sunny.5 mph65%29.86 "HgN/A
12:20 PM70 °FPartly sunny.5 mph69%29.83 "HgN/A
11:50 AM70 °FPartly sunny.5 mph69%29.83 "HgN/A
11:20 AM70 °FScattered clouds.5 mph64%29.83 "HgN/A
10:50 AM70 °FScattered clouds.5 mph69%29.83 "HgN/A
10:20 AM68 °FScattered clouds.5 mph73%29.83 "HgN/A
9:50 AM68 °FPartly sunny.3 mph73%29.83 "HgN/A
9:20 AM66 °FPartly sunny.3 mph78%29.83 "HgN/A
Weather by CustomWeather, © 2016

See weather overviewHow to use our weather pages